Hovedside
METAR-TAF:

METAR-TAF

Lufthavner :

Tillamook, Oregon, USA

breddegrad: 45-25-06N, lengdegrad: 123-48-52W, høyde over havet: 11 m

Gjeldene værobservasjon

Denne rapporten ble laget for 20 minutter siden, klokken 10:35 UTC
Flau vind
Temperatur 9°C
Luftfuktighet 87%
Trykk 1017 hPa
Sikt: 11.3 km
Overskyet i en høyde av 2000 ft

METAR: KTMK 221035Z AUTO 00000KT 7SM OVC020 09/07 A3003 RMK AO2

Tid: 03:55 (10:55 UTC)


TAF: fraværende

Værobservasjoner og værvarsel for over 4000 flyplasser (METAR- og TAF-rapporter).

Tilgjengelige stasjoner er representert av de røde og gule prikkene på kartet.

Hold musepekeren over prikken for å se navnet på stasjonen.

Klikk så for å se værobservasjoner og -varsler.

For å forandre kartet kan du klikke på den grønne knappen med svart kryss for å zoome inn, på den grønne knappen med strek for å zoome ut, eller på de grønne pilene for å se tilstøtende kart.


METAR-TAF: